This is the latest recevied weather packets stored in our database for station/object EA7OC-10. If no packets are shown the sender has not sent any weather packets the latest 10 day(s).
| Time | Temp. | Humidity | Pressure | Rain* | Wind** | Luminosity | Snow |
|---|---|---|---|---|---|---|---|
| 1777643729 | 36.11° C | 33% | 1018.6 hPa | - | - | - | - |
| 1777642828 | 35.56° C | 34% | 1018.7 hPa | - | - | - | - |
| 1777641928 | 34.44° C | 34% | 1018.8 hPa | - | - | - | - |
| 1777641028 | 34.44° C | 33% | 1018.9 hPa | - | - | - | - |
| 1777640128 | 34.44° C | 34% | 1019 hPa | - | - | - | - |
| 1777639228 | 34.44° C | 34% | 1018.9 hPa | - | - | - | - |
| 1777638328 | 33.89° C | 34% | 1019.1 hPa | - | - | - | - |
| 1777637428 | 33.89° C | 34% | 1019.3 hPa | - | - | - | - |
| 1777636528 | 33.89° C | 34% | 1019.3 hPa | - | - | - | - |
| 1777635628 | 32.78° C | 35% | 1019.4 hPa | - | - | - | - |
| 1777634727 | 30.56° C | 36% | 1019.7 hPa | - | - | - | - |
| 1777633827 | 30.56° C | 35% | 1019.9 hPa | - | - | - | - |
| 1777632927 | 30.56° C | 34% | 1019.9 hPa | - | - | - | - |
| 1777632171 | 30.56° C | 34% | 1019.9 hPa | - | - | - | - |
| 1777631271 | 31.67° C | 33% | 1020 hPa | - | - | - | - |
| 1777630371 | 32.78° C | 34% | 1020.2 hPa | - | - | - | - |
| 1777629471 | 32.22° C | 34% | 1020.5 hPa | - | - | - | - |
| 1777628570 | 32.22° C | 34% | 1020.5 hPa | - | - | - | - |
| 1777627670 | 31.67° C | 35% | 1020.5 hPa | - | - | - | - |
| 1777626770 | 31.67° C | 35% | 1020.4 hPa | - | - | - | - |
| 1777625869 | 30.56° C | 35% | 1020.5 hPa | - | - | - | - |
| 1777624498 | 29.44° C | 36% | 1020.4 hPa | - | - | - | - |
| 1777623598 | 27.78° C | 37% | 1020.4 hPa | - | - | - | - |
| 1777622698 | 26.67° C | 36% | 1020.3 hPa | - | - | - | - |
| 1777621798 | 27.22° C | 35% | 1020.4 hPa | - | - | - | - |
* Rain since midnight (hover to see other rain measurements)
** Current wind speed in m/s (hover to see current wind gust speed)